When you browse on this site, cookies collect data to enhance your experience and personalize the content and advertising you see.
Visit our Privacy Policy to learn more. By continuing to use the site, you agree to this use of cookies and data.
  • în România
  • Lista ţărilor
  • Pe 7 zile
  • Temperatura apei
  • Hartă satelitară
  • Meteo pe hartă
  • Widget-uri
  • user-avatar
    Intrare

    Meteo pe oră la Serchhip

    Astăzi, 16 Iulie, Marţi

    Timp Temperatura Precipitaţii Vânt Presiune Umiditate
    00:00 +20°C° 0 mm 0 m/s 678 mmHg 98%
    01:00 +20°C° 0 mm 0 m/s 677 mmHg 98%
    02:00 +19°C° 0 mm 0 m/s 677 mmHg 98%
    03:00 +19°C° 0 mm 0 m/s 676 mmHg 98%
    04:00 +19°C° 0 mm 0 m/s 677 mmHg 98%
    05:00 +20°C° 0 mm 0 m/s 677 mmHg 98%
    06:00 +20°C° 0 mm 0 m/s 677 mmHg 96%
    07:00 +22°C° 0 mm 0 m/s 678 mmHg 87%
    08:00 +24°C° 0 mm 0 m/s 678 mmHg 79%
    09:00 +27°C° 0 mm 0 m/s 679 mmHg 70%
    10:00 +30°C° 0.2 mm 1 m/s 679 mmHg 66%
    11:00 +30°C° 0.2 mm 1 m/s 679 mmHg 61%
    12:00 +31°C° 0 mm 1 m/s 679 mmHg 58%
    13:00 +31°C° 1 mm 1 m/s 679 mmHg 64%
    14:00 +30°C° 1 mm 1 m/s 678 mmHg 70%
    15:00 +27°C° 1 mm 0 m/s 677 mmHg 77%
    16:00 +26°C° 0.8 mm 0 m/s 677 mmHg 82%
    17:00 +25°C° 0.8 mm 0 m/s 676 mmHg 87%
    18:00 +24°C° 0.8 mm 0 m/s 676 mmHg 93%
    19:00 +23°C° 0.1 mm 0 m/s 677 mmHg 95%
    20:00 +22°C° 0.1 mm 0 m/s 677 mmHg 96%
    21:00 +21°C° 0.1 mm 0 m/s 677 mmHg 98%
    22:00 +21°C° 0 mm 0 m/s 677 mmHg 98%
    23:00 +21°C° 0 mm 0 m/s 677 mmHg 98%

    Mâine, 17 Iulie, Miercuri

    Timp Temperatura Precipitaţii Vânt Presiune Umiditate
    00:00 +21°C° 0 mm 0 m/s 677 mmHg 98%
    01:00 +20°C° 0.2 mm 0 m/s 677 mmHg 99%
    02:00 +20°C° 0.2 mm 0 m/s 677 mmHg 99%
    03:00 +20°C° 0.2 mm 0 m/s 676 mmHg 99%
    04:00 +20°C° 0.1 mm 0 m/s 677 mmHg 99%
    05:00 +20°C° 0.1 mm 0 m/s 677 mmHg 98%
    06:00 +21°C° 0.1 mm 0 m/s 677 mmHg 98%
    07:00 +23°C° 0 mm 0 m/s 678 mmHg 89%
    08:00 +25°C° 0 mm 0 m/s 678 mmHg 79%
    09:00 +27°C° 0 mm 0 m/s 679 mmHg 70%
    10:00 +28°C° 0.1 mm 0 m/s 678 mmHg 68%
    11:00 +28°C° 0.1 mm 0 m/s 678 mmHg 67%
    12:00 +31°C° 0.1 mm 1 m/s 678 mmHg 66%
    13:00 +30°C° 0.9 mm 1 m/s 677 mmHg 69%
    14:00 +30°C° 0.9 mm 1 m/s 677 mmHg 72%
    15:00 +30°C° 0.9 mm 1 m/s 676 mmHg 75%
    16:00 +28°C° 0.6 mm 1 m/s 676 mmHg 81%
    17:00 +25°C° 0.6 mm 0 m/s 676 mmHg 88%
    18:00 +24°C° 0.6 mm 0 m/s 676 mmHg 95%
    19:00 +23°C° 0.1 mm 0 m/s 676 mmHg 96%
    20:00 +22°C° 0.1 mm 0 m/s 677 mmHg 97%
    21:00 +21°C° 0.1 mm 0 m/s 677 mmHg 98%
    22:00 +21°C° 0.1 mm 0 m/s 677 mmHg 98%
    23:00 +21°C° 0.1 mm 0 m/s 677 mmHg 99%

    Poimâine, 18 Iulie, Joi

    Timp Temperatura Precipitaţii Vânt Presiune Umiditate
    00:00 +21°C° 0.1 mm 0 m/s 677 mmHg 99%
    01:00 +21°C° 1.3 mm 0 m/s 677 mmHg 99%
    02:00 +21°C° 1.3 mm 0 m/s 676 mmHg 99%
    03:00 +20°C° 1.3 mm 0 m/s 676 mmHg 99%
    04:00 +21°C° 0.9 mm 0 m/s 676 mmHg 99%
    05:00 +21°C° 0.9 mm 0 m/s 677 mmHg 99%
    06:00 +21°C° 0.9 mm 0 m/s 677 mmHg 98%
    07:00 +22°C° 0.3 mm 0 m/s 677 mmHg 94%
    08:00 +23°C° 0.3 mm 0 m/s 678 mmHg 89%
    09:00 +25°C° 0.3 mm 0 m/s 678 mmHg 84%
    10:00 +26°C° 0 mm 0 m/s 678 mmHg 77%
    11:00 +28°C° 0 mm 0 m/s 678 mmHg 70%
    12:00 +31°C° 0 mm 1 m/s 677 mmHg 63%
    13:00 +31°C° 1.1 mm 1 m/s 677 mmHg 68%
    14:00 +30°C° 1.1 mm 1 m/s 676 mmHg 73%
    15:00 +29°C° 1.1 mm 1 m/s 675 mmHg 79%
    16:00 +28°C° 1.4 mm 1 m/s 675 mmHg 84%
    17:00 +25°C° 1.4 mm 0 m/s 675 mmHg 90%
    18:00 +23°C° 1.4 mm 0 m/s 675 mmHg 96%
    19:00 +23°C° 1.2 mm 0 m/s 676 mmHg 97%
    20:00 +22°C° 1.2 mm 0 m/s 676 mmHg 97%
    21:00 +22°C° 1.2 mm 0 m/s 677 mmHg 98%
    22:00 +21°C° 0.3 mm 0 m/s 677 mmHg 98%
    23:00 +21°C° 0.3 mm 0 m/s 677 mmHg 99%

    19 Iulie, Vineri

    Timp Temperatura Precipitaţii Vânt Presiune Umiditate
    00:00 +21°C° 0.3 mm 0 m/s 677 mmHg 99%
    01:00 +21°C° 0.9 mm 0 m/s 677 mmHg 99%
    02:00 +21°C° 0.9 mm 0 m/s 676 mmHg 99%
    03:00 +21°C° 0.9 mm 0 m/s 676 mmHg 99%
    04:00 +21°C° 1.3 mm 0 m/s 677 mmHg 99%
    05:00 +21°C° 1.3 mm 0 m/s 677 mmHg 98%
    06:00 +21°C° 1.3 mm 0 m/s 677 mmHg 98%
    07:00 +23°C° 0.4 mm 0 m/s 678 mmHg 91%
    08:00 +24°C° 0.4 mm 0 m/s 679 mmHg 84%
    09:00 +26°C° 0.4 mm 0 m/s 679 mmHg 77%
    10:00 +27°C° 0 mm 0 m/s 679 mmHg 71%
    11:00 +30°C° 0 mm 1 m/s 679 mmHg 64%
    12:00 +31°C° 0 mm 1 m/s 678 mmHg 58%
    13:00 +31°C° 0.1 mm 1 m/s 678 mmHg 64%
    14:00 +30°C° 0.1 mm 1 m/s 677 mmHg 70%
    15:00 +29°C° 0.1 mm 1 m/s 676 mmHg 76%
    16:00 +28°C° 0.4 mm 1 m/s 676 mmHg 81%
    17:00 +25°C° 0.4 mm 0 m/s 676 mmHg 86%
    18:00 +24°C° 0.4 mm 0 m/s 676 mmHg 92%
    19:00 +23°C° 0.3 mm 0 m/s 677 mmHg 94%
    20:00 +22°C° 0.3 mm 0 m/s 677 mmHg 96%
    21:00 +22°C° 0.3 mm 0 m/s 678 mmHg 98%
    22:00 +21°C° 0.1 mm 0 m/s 678 mmHg 98%
    23:00 +21°C° 0.1 mm 0 m/s 678 mmHg 99%

    20 Iulie, Sâmbătă

    Timp Temperatura Precipitaţii Vânt Presiune Umiditate
    00:00 +21°C° 0.1 mm 0 m/s 678 mmHg 99%
    01:00 +21°C° 0.1 mm 0 m/s 678 mmHg 99%
    02:00 +21°C° 0.1 mm 0 m/s 677 mmHg 99%
    03:00 +21°C° 0.1 mm 0 m/s 677 mmHg 99%
    04:00 +21°C° 0.1 mm 0 m/s 677 mmHg 99%
    05:00 +21°C° 0.1 mm 0 m/s 678 mmHg 98%
    06:00 +21°C° 0.1 mm 0 m/s 678 mmHg 98%
    07:00 +23°C° 0.1 mm 0 m/s 678 mmHg 91%
    08:00 +26°C° 0.1 mm 1 m/s 679 mmHg 85%
    09:00 +28°C° 0.1 mm 1 m/s 679 mmHg 78%
    10:00 +28°C° 1 mm 1 m/s 679 mmHg 79%
    11:00 +28°C° 1 mm 1 m/s 679 mmHg 81%
    12:00 +28°C° 1 mm 1 m/s 678 mmHg 83%
    13:00 +28°C° 1.6 mm 1 m/s 678 mmHg 84%
    14:00 +28°C° 1.6 mm 1 m/s 677 mmHg 85%
    15:00 +27°C° 1.6 mm 1 m/s 676 mmHg 86%
    16:00 +26°C° 1.2 mm 1 m/s 676 mmHg 90%
    17:00 +26°C° 1.2 mm 1 m/s 676 mmHg 94%
    18:00 +23°C° 1.2 mm 0 m/s 676 mmHg 97%
    19:00 +22°C° 0 mm 0 m/s 677 mmHg 98%
    20:00 +21°C° 0 mm 0 m/s 677 mmHg 98%
    21:00 +21°C° 0 mm 0 m/s 677 mmHg 98%
    22:00 +21°C° 0 mm 0 m/s 677 mmHg 98%
    23:00 +21°C° 0 mm 0 m/s 677 mmHg 98%

    21 Iulie, Duminică

    Timp Temperatura Precipitaţii Vânt Presiune Umiditate
    00:00 +20°C° 0 mm 0 m/s 677 mmHg 98%
    01:00 +20°C° 0 mm 0 m/s 677 mmHg 98%
    02:00 +20°C° 0 mm 0 m/s 677 mmHg 98%
    03:00 +20°C° 0 mm 0 m/s 676 mmHg 98%
    04:00 +20°C° 0 mm 0 m/s 677 mmHg 98%
    05:00 +20°C° 0 mm 0 m/s 677 mmHg 98%
    06:00 +20°C° 0 mm 0 m/s 677 mmHg 98%
    07:00 +22°C° 0.1 mm 0 m/s 677 mmHg 93%
    08:00 +23°C° 0.1 mm 0 m/s 678 mmHg 89%
    09:00 +26°C° 0.1 mm 1 m/s 678 mmHg 84%
    10:00 +27°C° 0.4 mm 1 m/s 678 mmHg 79%
    11:00 +28°C° 0.4 mm 1 m/s 678 mmHg 73%
    12:00 +29°C° 0.4 mm 1 m/s 678 mmHg 67%
    13:00 +29°C° 0.1 mm 1 m/s 677 mmHg 67%
    14:00 +29°C° 0.1 mm 1 m/s 677 mmHg 67%
    15:00 +30°C° 0.1 mm 1 m/s 676 mmHg 66%
    16:00 +28°C° 0.7 mm 1 m/s 676 mmHg 76%
    17:00 +27°C° 0.7 mm 1 m/s 676 mmHg 85%
    18:00 +23°C° 0.7 mm 0 m/s 676 mmHg 95%
    19:00 +22°C° 0.1 mm 0 m/s 676 mmHg 96%
    20:00 +22°C° 0.1 mm 0 m/s 677 mmHg 97%
    21:00 +21°C° 0.1 mm 0 m/s 677 mmHg 98%
    22:00 +21°C° 0.1 mm 0 m/s 677 mmHg 98%
    23:00 +21°C° 0.1 mm 0 m/s 677 mmHg 99%
    Arată mai mult